EUTELSAT 65 WEST A

Last updated on Sun Apr 12 2026 00:02:54 GMT+0000 (Coordinated Universal Time)

1 41382U 16014A 26101.50777734 -.00000275 00000+0 00000+0 0 9993 2 41382 0.0574 341.8362 0002268 37.6075 297.8913 1.00273742 36856
UTC large
Height (km)
Speed (km/s)
/
Latitude / Longitude
Inclination (degrees)
Orbital Period (minutes)
Azimuth
Elevation
Range (km)
Doppler Factor

Next 0 passes for location: London (51.5072 / 0.1276)

Sorry there are no passes over London.
EUTELSAT 65 WEST A